星链-34732 (STARLINK-34732)

导读

STARLINK-34732是美国太空探索技术公司SpaceX星链星座的组网卫星,于2025年7月26日发射入轨,归属星链互联网星座项目,该卫星旨在为全球范围提供低延迟、高速率的卫星宽带互联网服务,覆盖偏远地区、海上与航空等传统网络难以覆盖的场景,是星链大规模低轨星座建设中的组成单元。

Basic Information
目录编号:
64955
目录名称:
STARLINK-34732
国际标识:
2025-158Z
轨道中心:
EARTH
卫星名称:
星链-34732
卫星全名:
星链-34732 (STARLINK-34732)
卫星状态:
在轨 (已飞行322 天)
发射日期:
2025-07-26 UTC
国别 :
美国 (US)
星等 :
--
Orbit Information
数据来源 国际轨道数据 AOE轨道数据
星历时间 2026-06-13T10:27:32+0800
16小时前
查看轨道信息
2026-06-14T00:00:00+0800
3小时前
查看轨道信息
半长轴 6927.601km 6927.647km
偏心率 0.0002421 0.0002539
轨道倾角 97.371° 97.365°
近地点辐角 86.016° 78.844°
升交点赤经 27.291° 27.822°
平近点角 274.135° 97.566°
近地点 547.786km 547.751km
远地点 551.142km 551.269km
周期 95.639分钟 95.640分钟
每日圈数 15.056654 15.056504
Detailed Information
固有亮度:
5
最大亮度:
2.5
卫星平台:
Starlink V1.0
覆盖范围:
全球
运营商:
太空探索技术公司
运营商所在国:
美国
制造商(研发单位):
太空探索技术公司
制造商所在国:
美国
使用方式:
暂无
Satellite Introduction
Starlink 计划是 SpaceX 推出的全球卫星互联网项目,通过发射低轨道卫星,为全球尤其是偏远地区提供高速、低延迟的互联网服务。自 2019 年起,Starlink 已部署数千颗卫星,旨在缩小全球数字鸿沟,推动互联网普及。该项目还为军事、航空等行业提供通信支持,带来广泛经济效益。
2D Orbit Map
3D Orbit Map
Orbit Altitude Analysis Chart
Orbit Inclination Analysis Chart
Orbit Comprehensive Analysis Chart
View Comprehensive Chart